This demonstration page uses our WeatherBlox Daily Observations layout. Learn more.

Left ArrowRight Arrow

38.88101, -77.10428

Hourly Observations for May 8, 2020

Temp ( °F °C ) Dew Point ( °F °C ) Humidity (%) Winds ( mph kmh ) Pressure ( in mb ) Visibility ( mi km ) Precip ( " mm )
12:52 am 00:52 Mostly Clear 56 13.3 33 0.6 42 42 SSW 5 7 29.88 1012 10 16.0934 0 0
1:52 am 01:52 Clear 55 12.8 33 0.6 44 44 Calm 29.85 1011 10 16.0934 0 0
2:52 am 02:52 Clear 52 11.1 35 1.7 53 53 SW 5 7 29.85 1011 10 16.0934 0 0
3:52 am 03:52 Mostly Cloudy 53 11.7 33 0.6 47 47 WSW 5 7 29.85 1011 10 16.0934 0 0
4:52 am 04:52 Cloudy 54 12.2 33 0.6 45 45 Calm 29.87 1011 10 16.0934 0 0
5:52 am 05:52 Cloudy 54 12.2 40 4.4 59 59 Calm 29.87 1011 10 16.0934 0 0
6:52 am 06:52 Cloudy 54 12.2 40 4.4 59 59 SSW 7 11 29.87 1012 10 16.0934 0 0
7:52 am 07:52 Mostly Cloudy 56 13.3 41 5 57 57 SSW 5 7 29.86 1011 10 16.0934 0 0
8:52 am 08:52 Mostly Sunny 59 15 44 6.7 58 58 S 7 11 29.84 1011 10 16.0934 0 0
8:54 am 08:54 Partly Cloudy 59 15 44 6.7 58 58 S 7 11 29.85 1011 10 16.0934 0 0
9:52 am 09:52 Mostly Cloudy 63 17.2 45 7.2 52 52 SW 9 15 29.81 1010 10 16.0934 0 0
10:52 am 10:52 Mostly Cloudy 66 18.9 42 5.6 42 42 WSW 17 28 29.8 1009 10 16.0934 0 0
11:52 am 11:52 Mostly Cloudy 68 20 40 4.4 36 36 W 16 26 29.78 1009 10 16.0934 0 0
12:52 pm 12:52 Cloudy 68 20 36 2.2 31 31 SW 22 35 29.74 1007 10 16.0934 0.001 0.001
1:52 pm 13:52 Cloudy 67 19.4 40 4.4 37 37 SW 16 26 29.72 1006 10 16.0934 0 0
2:52 pm 14:52 Cloudy with Light Rain 64 17.8 44 6.7 48 48 W 12 19 29.7 1006 10 16.0934 0.001 0.001
3:52 pm 15:52 Cloudy with Light Rain 63 17.2 45 7.2 52 52 SW 13 20 29.68 1005 10 16.0934 0.001 0.001
4:52 pm 16:52 Cloudy with Light Rain 59 15 47 8.3 64 64 SW 18 30 29.67 1005 10 16.0934 0.001 0.001
5:52 pm 17:52 Cloudy with Light Rain 58 14.4 49 9.4 72 72 SW 12 19 29.65 1004 10 16.0934 0.001 0.001
6:52 pm 18:52 Cloudy with Light Rain 56 13.3 50 10 81 81 SW 12 19 29.64 1004 10 16.0934 0.02 0.508
7:52 pm 19:52 Cloudy 56 13.3 50 10 81 81 SSW 9 15 29.61 1003 10 16.0934 0.001 0.001
8:35 pm 20:35 Cloudy with Heavy Rain 50 10 45 7.2 83 83 NW 20 31 29.66 1004 4 6.43736 0.04 1.016
8:52 pm 20:52 Cloudy with Light Rain 49 9.4 45 7.2 86 86 NW 20 31 29.67 1005 9 14.48406 0.06 1.524
9:52 pm 21:52 Cloudy with Light Rain 49 9.4 45 7.2 86 86 NW 13 20 29.71 1006 10 16.0934 0.04 1.016
10:41 pm 22:41 Cloudy with Light Rain 45 7.2 40 4.4 83 83 NW 22 35 29.78 1009 10 16.0934 0.001 0.001
10:52 pm 22:52 Cloudy with Light Rain 44 6.7 37 2.8 76 76 NNW 25 41 29.79 1009 10 16.0934 0.001 0.001
11:05 pm 23:05 Cloudy with Light Rain 43 6.1 35 1.7 74 74 NNW 28 44 29.8 1009 10 16.0934 0.001 0.001
11:52 pm 23:52 Mostly Cloudy 42 5.6 30 -1.1 62 62 NW 26 43 29.83 1010 10 16.0934 0.001 0.001

Powered by AerisWeather